Location: Unspecified
(0.0000°N, 0.0000°E)
Time: 14:22:47
(UTC+00:00)

CZ-3C DEB - Pass Details

Date: 15 February 2026
Orbit: 521 x 35552 km, 20.3° (Epoch: 6 July)

Event Time Altitude Azimuth Distance (km) Brightness Sun altitude
Rises 21:54:54 0° 263° (W) 5,672 ? -53.3°
Reaches altitude 10° 21:57:17 10° 258° (WSW) 5,352 ? -53.9°
Maximum altitude 02:39:53 52° 108° (ESE) 24,281 ? -51.8°
Drops below altitude 10° 04:32:57 10° 78° (ENE) 11,591 ? -24.7°
Sets 04:39:15 0° 76° (ENE) 11,074 ? -23.1°
